Location: Newark
(46.7000°N, 60.6000°W)
Time: 09:23:25
(UTC+00:00)

Transit 2A Rocket - Pass Details

Date: 03 November 2020
Orbit: 588 x 915 km, 66.7° (Epoch: 23 November)

Event Time Altitude Azimuth Distance (km) Brightness Sun altitude
Rises 20:13:08 0° 328° (NNW) 3,304 8.4 3.9°
Reaches altitude 10° 20:15:43 10° 332° (NNW) 2,317 7.5 3.5°
Maximum altitude 20:20:54 56° 51° (NE) 848 5.0 2.7°
Drops below altitude 10° 20:25:35 10° 130° (SE) 2,094 7.0 1.9°
Sets 20:27:49 0° 135° (SE) 2,958 7.8 1.6°
